When you browse on this site, cookies collect data to enhance your experience and personalize the content and advertising you see.
Visit our Privacy Policy to learn more. By continuing to use the site, you agree to this use of cookies and data.
  • en France
  • Liste des pays
  • À 7 jours
  • Température de l'eau
  • Carte satellitaire
  • Carte météo
  • Widgets météo
  • user-avatar
    Se connecter

    Météo par heure à Korçё

    Ce jour, 19 Janvier, Samedi

    Heure Température Précipitation Vent Pression Humidité
    00:00 +1°C° 0.1 mm 2 m/s 664 mmHg 96%
    01:00 +1°C° 0 mm 2 m/s 664 mmHg 96%
    02:00 +1°C° 0.1 mm 2 m/s 664 mmHg 96%
    03:00 +1°C° 0.1 mm 2 m/s 664 mmHg 96%
    04:00 +1°C° 0.1 mm 2 m/s 664 mmHg 96%
    05:00 +1°C° 0 mm 2 m/s 664 mmHg 95%
    06:00 -1°C° 0 mm 2 m/s 664 mmHg 95%
    07:00 -1°C° 0 mm 2 m/s 664 mmHg 95%
    08:00 +1°C° 0.4 mm 2 m/s 664 mmHg 95%
    09:00 +2°C° 0.4 mm 2 m/s 664 mmHg 95%
    10:00 +2°C° 0.4 mm 2 m/s 665 mmHg 94%
    11:00 +3°C° 0.6 mm 2 m/s 664 mmHg 93%
    12:00 +3°C° 0.6 mm 2 m/s 664 mmHg 92%
    13:00 +4°C° 0.6 mm 2 m/s 664 mmHg 91%
    14:00 +3°C° 0.2 mm 2 m/s 664 mmHg 91%
    15:00 +3°C° 0.2 mm 2 m/s 664 mmHg 92%
    16:00 +3°C° 0.2 mm 2 m/s 664 mmHg 92%
    17:00 +3°C° 0.2 mm 2 m/s 663 mmHg 92%
    18:00 +2°C° 0.2 mm 2 m/s 663 mmHg 92%
    19:00 +2°C° 0.2 mm 2 m/s 663 mmHg 92%
    20:00 +2°C° 0.1 mm 2 m/s 663 mmHg 92%
    21:00 +1°C° 0.1 mm 2 m/s 663 mmHg 91%
    22:00 +1°C° 0.1 mm 2 m/s 663 mmHg 91%
    23:00 +1°C° 0 mm 2 m/s 663 mmHg 90%

    Demain, 20 Janvier, Dimanche

    Heure Température Précipitation Vent Pression Humidité
    00:00 -1°C° 0 mm 2 m/s 663 mmHg 90%
    01:00 -1°C° 0 mm 2 m/s 663 mmHg 90%
    02:00 -1°C° 0.2 mm 2 m/s 663 mmHg 90%
    03:00 -1°C° 0.2 mm 2 m/s 663 mmHg 91%
    04:00 +1°C° 0.2 mm 2 m/s 662 mmHg 91%
    05:00 +1°C° 0.2 mm 2 m/s 663 mmHg 92%
    06:00 0°C° 0.2 mm 3 m/s 663 mmHg 93%
    07:00 0°C° 0.2 mm 3 m/s 663 mmHg 93%
    08:00 +2°C° 0 mm 2 m/s 663 mmHg 91%
    09:00 +3°C° 0 mm 2 m/s 663 mmHg 89%
    10:00 +3°C° 0 mm 2 m/s 664 mmHg 88%
    11:00 +4°C° 0 mm 2 m/s 664 mmHg 85%
    12:00 +4°C° 0 mm 2 m/s 663 mmHg 83%
    13:00 +5°C° 0 mm 2 m/s 663 mmHg 81%
    14:00 +5°C° 0.1 mm 1 m/s 663 mmHg 82%
    15:00 +5°C° 0.1 mm 1 m/s 663 mmHg 84%
    16:00 +5°C° 0.1 mm 1 m/s 663 mmHg 86%
    17:00 +4°C° 0 mm 1 m/s 663 mmHg 87%
    18:00 +3°C° 0 mm 1 m/s 663 mmHg 88%
    19:00 +2°C° 0 mm 1 m/s 663 mmHg 89%
    20:00 +1°C° 0 mm 1 m/s 663 mmHg 88%
    21:00 +1°C° 0 mm 1 m/s 663 mmHg 87%
    22:00 +1°C° 0 mm 1 m/s 663 mmHg 86%
    23:00 +1°C° 0 mm 1 m/s 663 mmHg 84%

    Après-demain, 21 Janvier, Lundi

    Heure Température Précipitation Vent Pression Humidité
    00:00 0°C° 0 mm 1 m/s 663 mmHg 82%
    01:00 0°C° 0 mm 1 m/s 662 mmHg 79%
    02:00 0°C° 0 mm 1 m/s 662 mmHg 78%
    03:00 -2°C° 0 mm 2 m/s 662 mmHg 77%
    04:00 -2°C° 0 mm 2 m/s 662 mmHg 76%
    05:00 -2°C° 0 mm 2 m/s 662 mmHg 77%
    06:00 -2°C° 0 mm 2 m/s 662 mmHg 78%
    07:00 -2°C° 0 mm 2 m/s 662 mmHg 79%
    08:00 +1°C° 0 mm 2 m/s 663 mmHg 79%
    09:00 +2°C° 0 mm 2 m/s 664 mmHg 79%
    10:00 +4°C° 0 mm 2 m/s 664 mmHg 79%
    11:00 +4°C° 0 mm 2 m/s 664 mmHg 78%
    12:00 +5°C° 0 mm 2 m/s 664 mmHg 77%
    13:00 +5°C° 0 mm 2 m/s 664 mmHg 76%
    14:00 +5°C° 0.1 mm 2 m/s 663 mmHg 79%
    15:00 +4°C° 0.1 mm 2 m/s 663 mmHg 81%
    16:00 +5°C° 0.1 mm 1 m/s 663 mmHg 83%
    17:00 +3°C° 0.1 mm 2 m/s 663 mmHg 86%
    18:00 +2°C° 0.1 mm 2 m/s 663 mmHg 88%
    19:00 +2°C° 0.1 mm 2 m/s 663 mmHg 91%
    20:00 +2°C° 0.2 mm 2 m/s 663 mmHg 91%
    21:00 +2°C° 0.2 mm 2 m/s 663 mmHg 90%
    22:00 +1°C° 0.2 mm 2 m/s 663 mmHg 90%
    23:00 +1°C° 0.2 mm 2 m/s 663 mmHg 89%

    22 Janvier, Mardi

    Heure Température Précipitation Vent Pression Humidité
    00:00 +1°C° 0.2 mm 2 m/s 662 mmHg 88%
    01:00 +1°C° 0.2 mm 2 m/s 662 mmHg 87%
    02:00 +1°C° 0.3 mm 2 m/s 662 mmHg 86%
    03:00 +1°C° 0.3 mm 2 m/s 661 mmHg 86%
    04:00 -1°C° 0.3 mm 2 m/s 661 mmHg 85%
    05:00 -1°C° 0.2 mm 2 m/s 661 mmHg 86%
    06:00 -1°C° 0.2 mm 2 m/s 660 mmHg 87%
    07:00 -1°C° 0.2 mm 2 m/s 660 mmHg 88%
    08:00 +1°C° 0.1 mm 2 m/s 660 mmHg 87%
    09:00 +1°C° 0.1 mm 3 m/s 660 mmHg 86%
    10:00 +2°C° 0.1 mm 3 m/s 660 mmHg 86%
    11:00 +2°C° 0.4 mm 3 m/s 660 mmHg 86%
    12:00 +2°C° 0.4 mm 3 m/s 659 mmHg 87%
    13:00 +2°C° 0.4 mm 3 m/s 658 mmHg 88%
    14:00 +2°C° 0.5 mm 3 m/s 658 mmHg 89%
    15:00 +2°C° 0.5 mm 3 m/s 657 mmHg 91%
    16:00 +2°C° 0.5 mm 3 m/s 656 mmHg 92%
    17:00 +1°C° 1.3 mm 3 m/s 656 mmHg 92%
    18:00 +1°C° 1.3 mm 3 m/s 656 mmHg 93%
    19:00 +2°C° 1.3 mm 2 m/s 655 mmHg 93%
    20:00 +2°C° 2 mm 2 m/s 655 mmHg 93%
    21:00 +2°C° 2 mm 2 m/s 655 mmHg 94%
    22:00 +2°C° 2 mm 2 m/s 654 mmHg 94%
    23:00 +2°C° 1.6 mm 2 m/s 654 mmHg 95%

    23 Janvier, Mercredi

    Heure Température Précipitation Vent Pression Humidité
    00:00 +2°C° 1.6 mm 2 m/s 654 mmHg 95%
    01:00 +2°C° 1.6 mm 2 m/s 653 mmHg 95%
    02:00 +2°C° 0.4 mm 2 m/s 653 mmHg 96%
    03:00 +2°C° 0.4 mm 2 m/s 653 mmHg 97%
    04:00 +2°C° 0.4 mm 2 m/s 652 mmHg 98%
    05:00 +2°C° 0.4 mm 2 m/s 652 mmHg 98%
    06:00 +2°C° 0.4 mm 2 m/s 652 mmHg 98%
    07:00 +2°C° 0.4 mm 2 m/s 652 mmHg 98%
    08:00 +2°C° 0.3 mm 2 m/s 653 mmHg 97%
    09:00 +2°C° 0.3 mm 2 m/s 653 mmHg 95%
    10:00 +3°C° 0.3 mm 2 m/s 653 mmHg 93%
    11:00 +3°C° 0.4 mm 2 m/s 653 mmHg 92%
    12:00 +3°C° 0.4 mm 2 m/s 653 mmHg 91%
    13:00 +3°C° 0.4 mm 2 m/s 653 mmHg 90%
    14:00 +3°C° 2.5 mm 2 m/s 653 mmHg 93%
    15:00 +2°C° 2.5 mm 2 m/s 653 mmHg 95%
    16:00 +2°C° 2.5 mm 2 m/s 653 mmHg 98%
    17:00 +2°C° 0.7 mm 2 m/s 653 mmHg 98%
    18:00 +1°C° 0.7 mm 2 m/s 653 mmHg 98%
    19:00 +1°C° 0.7 mm 2 m/s 653 mmHg 97%
    20:00 +1°C° 0 mm 2 m/s 653 mmHg 97%
    21:00 -1°C° 0 mm 3 m/s 653 mmHg 96%
    22:00 -2°C° 0 mm 3 m/s 653 mmHg 95%
    23:00 -2°C° 0 mm 3 m/s 653 mmHg 92%

    24 Janvier, Jeudi

    Heure Température Précipitation Vent Pression Humidité
    00:00 -3°C° 0 mm 2 m/s 653 mmHg 89%
    01:00 -3°C° 0 mm 2 m/s 652 mmHg 86%
    02:00 -3°C° 0 mm 2 m/s 652 mmHg 85%
    03:00 -3°C° 0 mm 2 m/s 652 mmHg 84%
    04:00 -3°C° 0 mm 2 m/s 652 mmHg 82%
    05:00 -3°C° 0 mm 2 m/s 651 mmHg 82%
    06:00 -3°C° 0 mm 2 m/s 651 mmHg 81%
    07:00 -3°C° 0 mm 2 m/s 651 mmHg 81%
    08:00 -1°C° 0 mm 3 m/s 651 mmHg 79%
    09:00 0°C° 0 mm 3 m/s 651 mmHg 77%
    10:00 +1°C° 0 mm 3 m/s 651 mmHg 76%
    11:00 +1°C° 0.2 mm 3 m/s 651 mmHg 78%
    12:00 +1°C° 0.2 mm 3 m/s 650 mmHg 81%
    13:00 +2°C° 0.2 mm 3 m/s 650 mmHg 83%
    14:00 +1°C° 0.8 mm 3 m/s 650 mmHg 85%
    15:00 +1°C° 0.8 mm 3 m/s 650 mmHg 88%
    16:00 0°C° 0.8 mm 3 m/s 650 mmHg 90%
    17:00 0°C° 0.1 mm 3 m/s 649 mmHg 90%
    18:00 -1°C° 0.1 mm 3 m/s 649 mmHg 90%
    19:00 -2°C° 0.1 mm 3 m/s 648 mmHg 90%
    20:00 -1°C° 1.6 mm 3 m/s 649 mmHg 92%
    21:00 -1°C° 1.6 mm 3 m/s 649 mmHg 94%
    22:00 -1°C° 1.6 mm 3 m/s 650 mmHg 95%
    23:00 -2°C° 0.2 mm 3 m/s 649 mmHg 94%
    Voir plus